DW9345 Weather Reports


Display with metric or nautical units.
time (UTC)temp
F
wind
direction
speed
MPH
gust
MPH
rain 1hr
in
rain 24hr
in
rain mn
in
humidity
%
barometer
mb
20260506073029 61 355 2.0 5.0 0.00 0.00 0.00 81 1005.9
20260506071532 61 355 3.0 5.0 0.00 0.00 0.00 81 1005.7
20260506061529 63 355 3.0 8.0 0.00 0.00 0.00 78 1005.8
20260506044506 67 355 2.0 6.0 0.00 0.00 0.00 75 1005.6
20260506043006 68 355 3.0 9.0 0.00 0.00 0.00 75 1005.6
20260506041504 68 355 3.0 12.0 0.00 0.00 0.00 74 1005.5
20260506040002 68 350 3.0 9.0 0.00 0.00 0.00 74 1005.3
20260506034501 69 348 3.0 9.0 0.00 0.00 0.00 73 1005.4
20260506033100 69 360 2.0 6.0 0.00 0.00 0.00 73 1005.2
20260506031605 70 360 1.0 4.0 0.00 0.00 0.00 72 1004.7
20260506030055 71 360 2.0 5.0 0.00 0.00 0.00 72 1004.1
20260506024555 72 360 0.0 8.0 0.00 0.00 0.00 71 1003.9
20260506023054 73 355 3.0 8.0 0.00 0.00 0.00 70 1003.8
20260506021558 75 346 4.0 8.0 0.00 0.00 0.00 69 1003.0
20260506020055 76 355 7.0 13.0 0.00 0.00 0.00 67 1002.8
20260506014552 78 345 5.0 11.0 0.00 0.00 0.00 69 1002.1
20260506013051 79 155 1.0 3.0 0.00 0.00 0.00 75 1001.4
20260506011553 80 153 0.0 2.0 0.00 0.00 0.00 74 1001.0
20260506010055 81 155 2.0 5.0 0.00 0.00 0.00 72 1000.7
20260506004551 82 155 3.0 6.0 0.00 0.00 0.00 67 1000.8
20260506003049 84 155 0.0 0.0 0.00 0.00 0.00 67 1000.5
20260506001549 85 155 0.0 1.0 0.00 0.00 0.00 64 1000.7
20260506000048 87 155 0.0 2.0 0.00 0.00 0.00 58 1000.8
20260505234556 87 151 0.0 2.0 0.00 0.00 0.00 58 1000.9
20260505233057 88 151 2.0 5.0 0.00 0.00 0.00 54 1000.8
20260505231551 89 151 3.0 6.0 0.00 0.00 0.00 50 1000.7
20260505230044 89 151 0.0 6.0 0.00 0.00 0.00 49 1000.7
20260505224543 90 151 1.0 6.0 0.00 0.00 0.00 46 1000.9
20260505223050 90 151 3.0 8.0 0.00 0.00 0.00 47 1000.9
20260505221541 90 151 2.0 5.0 0.00 0.00 0.00 49 1000.7
20260505220042 90 151 1.0 7.0 0.00 0.00 0.00 52 1000.7
20260505214547 89 151 2.0 7.0 0.00 0.00 0.00 51 1000.8
20260505213037 89 150 3.0 6.0 0.00 0.00 0.00 56 1000.9
20260505211536 89 150 4.0 8.0 0.00 0.00 0.00 51 1000.9
20260505210034 89 148 5.0 8.0 0.00 0.00 0.00 54 1001.1
20260505204535 89 172 3.0 8.0 0.00 0.00 0.00 51 1001.5
20260505203032 88 175 2.0 6.0 0.00 0.00 0.00 56 1001.6
20260505201527 89 159 2.0 11.0 0.00 0.00 0.00 53 1001.7
20260505200036 89 165 4.0 8.0 0.00 0.00 0.00 58 1001.9
20260505194522 88 160 4.0 11.0 0.00 0.00 0.00 59 1002.0
20260505193021 88 164 6.0 10.0 0.00 0.00 0.00 59 1002.2
20260505191520 87 169 5.0 9.0 0.00 0.00 0.00 62 1002.3
20260505190024 87 167 6.0 11.0 0.00 0.00 0.00 63 1002.4
20260505184515 86 163 7.0 10.0 0.00 0.00 0.00 64 1002.5
20260505183012 85 169 7.0 10.0 0.00 0.00 0.00 65 1002.7
20260505181511 84 176 5.0 10.0 0.00 0.00 0.00 66 1003.0
20260505180010 84 165 7.0 11.0 0.00 0.00 0.00 66 1003.1
20260505174508 83 144 5.0 11.0 0.00 0.00 0.00 69 1003.0
20260505173005 83 162 8.0 14.0 0.00 0.00 0.00 68 1003.1
20260505171506 82 173 8.0 12.0 0.00 0.00 0.00 69 1003.4
20260505170100 81 177 7.0 10.0 0.00 0.00 0.00 70 1003.3
20260505164620 81 167 6.0 12.0 0.00 0.00 0.00 71 1003.2
20260505163102 79 183 7.0 12.0 0.00 0.00 0.00 75 1003.1
20260505161605 78 171 8.0 11.0 0.00 0.00 0.00 75 1003.1
20260505153045 76 172 8.0 11.0 0.00 0.00 0.00 77 1003.2
20260505151546 76 159 7.0 12.0 0.00 0.00 0.00 79 1003.4
20260505124524 67 174 4.0 6.0 0.00 0.00 0.00 92 1002.8
20260505123022 66 175 4.0 6.0 0.00 0.00 0.00 91 1002.6
20260505121520 66 175 3.0 5.0 0.00 0.00 0.00 92 1002.4
20260505120022 66 175 3.0 6.0 0.00 0.00 0.00 91 1002.2
20260505114519 66 175 3.0 5.0 0.00 0.00 0.00 91 1002.1
20260505113018 66 175 4.0 6.0 0.00 0.00 0.00 91 1002.1
20260505111526 66 178 4.0 7.0 0.00 0.00 0.00 91 1001.9
20260505101514 65 166 3.0 5.0 0.00 0.00 0.00 91 1002.1
20260505100018 65 166 4.0 5.0 0.00 0.00 0.00 90 1002.0
20260505094510 65 166 3.0 5.0 0.00 0.00 0.00 90 1002.4
20260505093009 65 166 3.0 5.0 0.00 0.00 0.00 90 1002.4
20260505091508 65 166 4.0 6.0 0.00 0.00 0.00 89 1002.6
20260505090005 65 166 4.0 7.0 0.00 0.00 0.00 89 1002.7
20260505084504 66 166 3.0 5.0 0.00 0.00 0.00 89 1002.7
20260505083007 66 166 4.0 5.0 0.00 0.00 0.00 88 1002.9
20260505081501 66 166 4.0 6.0 0.00 0.00 0.00 88 1002.9